Radiation Dose at Monitoring Post of Fukushima Daini Nuclear Power Station
Date,Time,MP-1(microSv/h),MP-2(microSv/h),MP-3(microSv/h),MP-4(microSv/h),MP-5(microSv/h),MP-6(microSv/h),MP-7(microSv/h),Wind Direction,Wind Velocity(m/s),Rain
2024/06/22,00:00,0.145,0.128,0.206,0.193,0.204,0.112,0.074,north-northwest,6.9,No
2024/06/22,00:10,0.144,0.127,0.207,0.194,0.202,0.113,0.073,north-northwest,6.3,No
2024/06/22,00:20,0.144,0.128,0.206,0.194,0.202,0.113,0.073,north-northwest,6.5,No
2024/06/22,00:30,0.144,0.127,0.207,0.193,0.203,0.113,0.074,north-northwest,6.3,No
2024/06/22,00:40,0.144,0.128,0.206,0.192,0.204,0.113,0.074,north-northwest,6.2,No
2024/06/22,00:50,0.145,0.127,0.208,0.193,0.200,0.113,0.074,northwest,6.1,No
2024/06/22,01:00,0.145,0.128,0.206,0.193,0.203,0.114,0.073,northwest,6.5,No
2024/06/22,01:10,0.144,0.128,0.206,0.193,0.200,0.113,0.073,northwest,6.6,No
2024/06/22,01:20,0.145,0.127,0.206,0.192,0.203,0.113,0.073,northwest,6.3,No
2024/06/22,01:30,0.144,0.128,0.206,0.193,0.202,0.113,0.074,northwest,6.1,No
2024/06/22,01:40,0.144,0.127,0.206,0.193,0.204,0.113,0.073,northwest,6.1,No
2024/06/22,01:50,0.144,0.127,0.206,0.193,0.200,0.114,0.074,northwest,5.8,No
2024/06/22,02:00,0.144,0.128,0.207,0.192,0.202,0.113,0.073,northwest,6.3,No
2024/06/22,02:10,0.144,0.128,0.205,0.193,0.202,0.113,0.073,northwest,5.9,No
2024/06/22,02:20,0.144,0.127,0.206,0.192,0.204,0.113,0.073,northwest,4.9,No
2024/06/22,02:30,0.145,0.127,0.207,0.193,0.202,0.113,0.074,north-northwest,4.6,No
2024/06/22,02:40,0.143,0.128,0.207,0.193,0.204,0.113,0.073,northwest,4.9,No
2024/06/22,02:50,0.144,0.127,0.207,0.193,0.202,0.113,0.073,northwest,5.0,No
2024/06/22,03:00,0.144,0.128,0.205,0.194,0.203,0.112,0.073,northwest,4.7,No
2024/06/22,03:10,0.145,0.127,0.206,0.192,0.201,0.112,0.074,northwest,4.4,No
2024/06/22,03:20,0.144,0.128,0.206,0.194,0.203,0.113,0.073,northwest,4.0,No
2024/06/22,03:30,0.144,0.128,0.206,0.193,0.202,0.112,0.073,north-northwest,4.0,No
2024/06/22,03:40,0.145,0.128,0.206,0.194,0.202,0.112,0.073,northwest,3.6,No
2024/06/22,03:50,0.145,0.127,0.206,0.192,0.203,0.114,0.072,northwest,3.5,No
2024/06/22,04:00,0.144,0.127,0.207,0.192,0.204,0.113,0.074,north-northwest,2.6,No
2024/06/22,04:10,0.144,0.128,0.205,0.193,0.201,0.112,0.073,northwest,2.3,No
2024/06/22,04:20,0.144,0.128,0.207,0.192,0.203,0.113,0.074,north-northwest,1.9,No
2024/06/22,04:30,0.144,0.128,0.206,0.193,0.201,0.113,0.073,north-northwest,1.8,No
2024/06/22,04:40,0.144,0.127,0.206,0.193,0.203,0.114,0.073,north-northwest,1.8,No
2024/06/22,04:50,0.143,0.128,0.207,0.193,0.202,0.113,0.073,northwest,1.6,No
2024/06/22,05:00,0.144,0.127,0.206,0.192,0.203,0.114,0.074,north-northwest,1.1,No
2024/06/22,05:10,0.143,0.127,0.207,0.194,0.201,0.113,0.073,-,CALM,No
2024/06/22,05:20,0.145,0.128,0.206,0.192,0.202,0.113,0.073,north-northeast,0.6,No
2024/06/22,05:30,0.143,0.128,0.206,0.194,0.203,0.114,0.073,-,CALM,No
2024/06/22,05:40,0.144,0.127,0.206,0.193,0.200,0.113,0.073,-,CALM,No
2024/06/22,05:50,0.143,0.128,0.206,0.193,0.202,0.114,0.074,-,CALM,No
2024/06/22,06:00,0.142,0.127,0.205,0.193,0.203,0.114,0.073,south-southwest,0.6,No
2024/06/22,06:10,0.144,0.127,0.205,0.193,0.201,0.113,0.073,south,0.6,No
2024/06/22,06:20,0.143,0.128,0.207,0.192,0.201,0.114,0.073,south,1.1,No
2024/06/22,06:30,0.143,0.127,0.206,0.192,0.204,0.113,0.073,south,1.8,No
2024/06/22,06:40,0.144,0.127,0.205,0.192,0.202,0.114,0.073,south,1.8,No
2024/06/22,06:50,0.143,0.128,0.206,0.193,0.201,0.113,0.074,south,2.2,No
2024/06/22,07:00,0.143,0.128,0.205,0.194,0.204,0.113,0.073,south,2.8,No
2024/06/22,07:10,0.145,0.128,0.205,0.192,0.203,0.113,0.073,south,2.7,No
2024/06/22,07:20,0.144,0.128,0.207,0.191,0.200,0.113,0.073,south-southeast,1.4,No
2024/06/22,07:30,0.143,0.128,0.205,0.193,0.204,0.114,0.074,south,2.8,No
2024/06/22,07:40,0.144,0.128,0.204,0.193,0.204,0.113,0.074,south,2.4,No
2024/06/22,07:50,0.144,0.127,0.203,0.192,0.202,0.113,0.074,south,2.7,No
2024/06/22,08:00,0.145,0.128,0.203,0.192,0.200,0.114,0.073,south,2.1,No
2024/06/22,08:10,0.143,0.127,0.205,0.196,0.201,0.113,0.074,south,2.7,No
2024/06/22,08:20,0.144,0.128,0.205,0.194,0.200,0.113,0.073,south,2.7,No
2024/06/22,08:30,0.142,0.127,0.206,0.193,0.201,0.113,0.074,south-southeast,3.4,No
2024/06/22,08:40,0.143,0.126,0.205,0.193,0.201,0.114,0.073,south-southeast,4.5,No
2024/06/22,08:50,0.144,0.127,0.206,0.192,0.203,0.113,0.073,south-southeast,3.9,No
2024/06/22,09:00,0.144,0.127,0.206,0.192,0.202,0.114,0.073,south-southeast,4.1,No
2024/06/22,09:10,0.143,0.128,0.206,0.192,0.202,0.114,0.074,south-southeast,4.8,No
2024/06/22,09:20,0.142,0.127,0.206,0.193,0.203,0.114,0.075,south-southeast,5.1,No
2024/06/22,09:30,0.143,0.127,0.206,0.193,0.202,0.114,0.074,south-southeast,5.8,No
2024/06/22,09:40,0.143,0.127,0.206,0.192,0.201,0.113,0.074,south-southeast,6.1,No
2024/06/22,09:50,0.143,0.128,0.208,0.193,0.203,0.115,0.074,south-southeast,6.9,No
2024/06/22,10:00,0.144,0.128,0.207,0.193,0.202,0.115,0.074,south-southeast,6.3,No
2024/06/22,10:10,0.143,0.127,0.208,0.193,0.202,0.114,0.074,south,6.7,No
2024/06/22,10:20,0.144,0.127,0.207,0.193,0.203,0.114,0.074,south-southeast,7.0,No
2024/06/22,10:30,0.145,0.129,0.206,0.193,0.204,0.113,0.074,south-southeast,6.7,No
2024/06/22,10:40,0.143,0.128,0.206,0.193,0.203,0.114,0.073,south,6.9,No
2024/06/22,10:50,0.144,0.127,0.206,0.193,0.203,0.114,0.073,south,7.1,No
2024/06/22,11:00,0.144,0.128,0.206,0.193,0.202,0.115,0.073,south,6.8,No
2024/06/22,11:10,0.144,0.127,0.207,0.193,0.202,0.114,0.073,south,6.5,No
2024/06/22,11:20,0.143,0.129,0.207,0.193,0.203,0.114,0.073,south-southeast,6.7,No
2024/06/22,11:30,0.144,0.129,0.206,0.194,0.202,0.113,0.073,south-southeast,7.2,No
2024/06/22,11:40,0.143,0.129,0.207,0.198,0.203,0.114,0.074,south,7.1,No
2024/06/22,11:50,0.143,0.128,0.207,0.196,0.206,0.115,0.074,south-southeast,6.3,No
2024/06/22,12:00,0.143,0.129,0.206,0.195,0.207,0.115,0.074,south,5.8,No
2024/06/22,12:10,0.145,0.128,0.207,0.194,0.205,0.115,0.073,south-southeast,5.9,No
2024/06/22,12:20,0.146,0.128,0.206,0.194,0.204,0.114,0.073,south,6.4,No
2024/06/22,12:30,0.145,0.128,0.208,0.195,0.203,0.114,0.073,south,6.2,No
2024/06/22,12:40,0.145,0.129,0.207,0.195,0.203,0.114,0.073,south,5.2,No
2024/06/22,12:50,0.145,0.128,0.208,0.195,0.203,0.114,0.073,south,5.4,No
2024/06/22,13:00,0.145,0.129,0.207,0.194,0.204,0.114,0.074,south,6.2,No
2024/06/22,13:10,0.144,0.129,0.208,0.195,0.205,0.114,0.074,south,6.9,No
2024/06/22,13:20,0.145,0.129,0.209,0.196,0.204,0.114,0.074,south,7.1,No
2024/06/22,13:30,0.145,0.128,0.209,0.195,0.204,0.114,0.074,south-southeast,7.0,No
2024/06/22,13:40,0.146,0.129,0.210,0.196,0.205,0.115,0.073,south,8.1,No
2024/06/22,13:50,0.146,0.128,0.208,0.195,0.204,0.114,0.074,south-southeast,8.9,No
2024/06/22,14:00,0.144,0.129,0.210,0.196,0.205,0.114,0.074,south-southeast,8.3,No
2024/06/22,14:10,0.145,0.128,0.209,0.196,0.204,0.114,0.073,south-southeast,9.8,No
2024/06/22,14:20,0.145,0.128,0.208,0.195,0.204,0.114,0.073,south-southeast,10.1,No
2024/06/22,14:30,0.144,0.128,0.209,0.196,0.204,0.114,0.074,south-southeast,8.5,No
2024/06/22,14:40,0.145,0.128,0.209,0.195,0.204,0.115,0.074,south,7.5,No
2024/06/22,14:50,0.144,0.128,0.208,0.196,0.203,0.115,0.074,south,7.3,No
2024/06/22,15:00,0.144,0.129,0.208,0.195,0.205,0.115,0.074,south-southeast,8.1,No
2024/06/22,15:10,0.144,0.130,0.209,0.195,0.205,0.116,0.073,south,8.1,No
2024/06/22,15:20,0.145,0.129,0.208,0.196,0.205,0.114,0.074,south,9.0,No
2024/06/22,15:30,0.145,0.129,0.209,0.196,0.205,0.115,0.073,south,8.4,No
2024/06/22,15:40,0.144,0.128,0.210,0.195,0.204,0.115,0.074,south-southeast,8.5,No
2024/06/22,15:50,0.145,0.129,0.209,0.194,0.204,0.115,0.074,south-southeast,8.1,No
2024/06/22,16:00,0.145,0.129,0.207,0.195,0.204,0.116,0.075,south-southeast,8.1,No
2024/06/22,16:10,0.145,0.128,0.208,0.195,0.203,0.114,0.073,south,8.1,No
2024/06/22,16:20,0.144,0.128,0.207,0.195,0.204,0.115,0.074,south,7.1,No
2024/06/22,16:30,0.144,0.130,0.207,0.196,0.205,0.115,0.074,south,8.4,No
2024/06/22,16:40,0.144,0.130,0.210,0.198,0.203,0.114,0.074,south-southeast,8.3,No
2024/06/22,16:50,0.144,0.129,0.211,0.197,0.204,0.116,0.073,south,10.1,No
2024/06/22,17:00,0.144,0.128,0.209,0.195,0.203,0.114,0.074,south,9.6,No
2024/06/22,17:10,0.147,0.130,0.209,0.197,0.204,0.116,0.074,south,9.0,No
2024/06/22,17:20,0.146,0.129,0.211,0.198,0.203,0.115,0.074,south-southeast,9.0,No
2024/06/22,17:30,0.145,0.129,0.212,0.197,0.202,0.115,0.074,south,10.1,No
2024/06/22,17:40,0.145,0.130,0.209,0.195,0.204,0.115,0.074,south,9.0,No
2024/06/22,17:50,0.147,0.131,0.209,0.198,0.208,0.116,0.074,south,9.5,No
2024/06/22,18:00,0.146,0.130,0.212,0.197,0.206,0.116,0.075,south,9.8,No
2024/06/22,18:10,0.145,0.130,0.210,0.196,0.205,0.114,0.074,south,9.5,No
2024/06/22,18:20,0.145,0.130,0.209,0.196,0.203,0.114,0.074,south,9.0,No
2024/06/22,18:30,0.146,0.129,0.211,0.198,0.206,0.116,0.075,south,9.5,No
2024/06/22,18:40,0.147,0.129,0.210,0.197,0.205,0.115,0.074,south,9.0,No
2024/06/22,18:50,0.145,0.130,0.209,0.197,0.204,0.114,0.074,south,7.7,No
2024/06/22,19:00,0.146,0.129,0.211,0.199,0.206,0.115,0.076,south,6.5,No
2024/06/22,19:10,0.145,0.130,0.209,0.197,0.205,0.115,0.074,south,6.3,No
2024/06/22,19:20,0.144,0.130,0.210,0.196,0.204,0.114,0.074,south,6.6,No
2024/06/22,19:30,0.147,0.130,0.211,0.199,0.207,0.116,0.074,south,5.7,No
2024/06/22,19:40,0.146,0.130,0.210,0.196,0.205,0.115,0.074,south,6.1,No
2024/06/22,19:50,0.146,0.130,0.211,0.197,0.203,0.114,0.074,south,6.3,No
2024/06/22,20:00,0.146,0.129,0.211,0.199,0.207,0.115,0.074,south,6.0,No
2024/06/22,20:10,0.145,0.131,0.209,0.197,0.205,0.115,0.074,south,7.3,No
2024/06/22,20:20,0.147,0.129,0.211,0.197,0.203,0.114,0.074,south,7.6,No
2024/06/22,20:30,0.147,0.130,0.210,0.198,0.206,0.115,0.074,south,7.7,No
2024/06/22,20:40,0.144,0.129,0.210,0.197,0.204,0.115,0.074,south,7.9,No
2024/06/22,20:50,0.147,0.130,0.212,0.197,0.204,0.114,0.075,south-southeast,6.6,No
2024/06/22,21:00,0.146,0.130,0.209,0.198,0.206,0.115,0.074,south-southeast,7.0,No
2024/06/22,21:10,0.145,0.130,0.211,0.196,0.205,0.115,0.074,south-southeast,6.4,No
2024/06/22,21:20,0.147,0.129,0.211,0.198,0.205,0.113,0.075,south,7.4,No
2024/06/22,21:30,0.146,0.129,0.210,0.197,0.206,0.115,0.075,south,8.1,No
2024/06/22,21:40,0.145,0.129,0.211,0.196,0.204,0.115,0.074,south,8.7,No
2024/06/22,21:50,0.146,0.129,0.210,0.198,0.207,0.115,0.074,south,9.2,No
2024/06/22,22:00,0.145,0.130,0.209,0.198,0.206,0.114,0.075,south,8.8,No
2024/06/22,22:10,0.146,0.130,0.212,0.196,0.203,0.115,0.074,south,9.2,No
2024/06/22,22:20,0.146,0.129,0.210,0.198,0.206,0.115,0.075,south,8.4,No
2024/06/22,22:30,0.145,0.129,0.211,0.198,0.206,0.116,0.073,south,8.8,No
2024/06/22,22:40,0.147,0.130,0.210,0.196,0.204,0.115,0.075,south,8.2,No
2024/06/22,22:50,0.146,0.129,0.209,0.199,0.206,0.114,0.074,south,7.6,No
2024/06/22,23:00,0.145,0.129,0.212,0.197,0.206,0.116,0.074,south,8.2,No
2024/06/22,23:10,0.147,0.130,0.210,0.197,0.203,0.116,0.075,south,6.9,No
2024/06/22,23:20,0.146,0.130,0.210,0.198,0.206,0.115,0.075,south,6.4,No
2024/06/22,23:30,0.146,0.130,0.211,0.197,0.206,0.115,0.075,south,6.9,No
2024/06/22,23:40,0.147,0.129,0.209,0.196,0.205,0.115,0.075,south,6.5,No
2024/06/22,23:50,0.146,0.130,0.210,0.198,0.206,0.115,0.075,south,8.4,No
